Location: Unspecified
(0.0000°N, 0.0000°E)
Time: 20:09:43
(UTC+00:00)

deb Kosmos-1275 - Pass Details

Date: 06 March 2026
Orbit: 880 x 1009 km, 83.1° (Epoch: 21 April)

Event Time Altitude Azimuth Distance (km) Brightness Sun altitude
Rises 04:21:27 0° 354° (N) 3,709 ? -27.3°
Reaches altitude 10° 04:24:00 10° 353° (N) 2,751 ? -26.7°
Maximum altitude 04:30:18 77° 267° (W) 1,002 ? -25.1°
Drops below altitude 10° 04:36:27 10° 182° (S) 2,681 ? -23.6°
Sets 04:38:55 0° 180° (S) 3,609 ? -23.0°
